GSAT-18

Last updated on Thu Oct 16 2025 00:02:48 GMT+0000 (Coordinated Universal Time)

1 41793U 16060A 25288.57144696 -.00000091 00000+0 00000+0 0 9993 2 41793 0.0737 82.1004 0000863 299.8954 282.0162 1.00271910 33076
UTC large
Height (km)
Speed (km/s)
/
Latitude / Longitude
Inclination (degrees)
Orbital Period (minutes)
Azimuth
Elevation
Range (km)
Doppler Factor

Next 0 passes for location: London (51.5072 / 0.1276)

Sorry there are no passes over London.